User: anonymous   Login
Location: Livonia
(42.3680°N, 83.3530°W)
Time: 17:15:19
(UTC-04:00)
Language:

MOZ.5/SAFIR/RUBIN 5/SL-8 - Orbit

View from above orbital plane
View from above orbital plane
View from above satellite
View from above satellite

Ground track
Ground track

The orbit data is extracted from the following two-line orbital elements,

1 28898U 05043G   16205.05287909  .00000063  00000-0  22165-4 0  9990
2 28898  97.8837   4.0114 0020773 139.8929 220.3810 14.60112660571803
Epoch (UTC): 23 July 2016 01:16:08
Eccentricity: 0.0020773
inclination: 97.8837°
perigee height: 678 km
apogee height: 707 km
right ascension of ascending node: 4.0114°
argument of perigee: 139.8929°
revolutions per day: 14.60112660
mean anomaly at epoch: 220.3810°
orbit number at epoch: 57180

The dashed part of the orbit path shows where the satellite is in the earth's shadow,  

DLR